Location: State Camp
(41.2367°N, 77.7828°W)
Time: 07:38:02
(UTC-04:00)

Amateur Radio Satellites - All Passes

Search period start: 02 September 2014 07:08
Search period end: 03 September 2014 07:08
Location: State Camp, 41.2367°N, 77.7828°W

Satellite Date Start Highest point End Downlink Frequencies (MHz)
Time Altitude Azimuth
Saudisat 1A 02 Sep 07:10:54 07:15:19 69° 55° (NE) 07:19:42 436.775 MHz
KITSAT 1 02 Sep 07:19:49 07:27:02 34° 44° (NE) 07:34:11 435.175 FM
RS-15 02 Sep 07:24:23 07:35:02 55° 113° (ESE) 07:45:30 29.354 - 29.394 USB, Beacon 29.352 USB
AO-7 02 Sep 07:26:10 07:32:58 30° 304° (NW) 07:39:46 29.400 - 29.500 MHz
STRAND 1 02 Sep 07:43:10 07:48:01 44° 261° (W) 07:52:53 ?
Hamsat 02 Sep 07:59:01 08:02:46 29° 291° (WNW) 08:06:29 145.90 MHz
JAS-2 02 Sep 08:13:37 08:18:22 35° 291° (WNW) 08:23:27 435.800 - 435.900 CW/SSB, 435.910 FM
SO-67 02 Sep 08:37:46 08:41:10 57° 285° (WNW) 08:44:33 435.3500 MHz FM
Saudisat 1A 02 Sep 08:52:31 08:54:19 12° 252° (WSW) 08:56:06 436.775 MHz
KITSAT 1 02 Sep 09:14:59 09:22:57 64° 245° (WSW) 09:30:51 435.175 FM
RS-15 02 Sep 09:37:06 09:47:34 47° 316° (NW) 09:58:03 29.354 - 29.394 USB, Beacon 29.352 USB
ISS 02 Sep 09:47:44 09:50:54 43° 138° (SE) 09:54:05 145.800 FM
UKube-1 02 Sep 09:57:37 10:01:10 24° 95° (E) 10:04:41 145.840 MHz, 145.915 MHz
Oscar 11 02 Sep 10:01:17 10:04:17 18° 93° (E) 10:07:16 145.825 FM, Beacon 2401.500 USB
HO-68 02 Sep 10:02:30 10:09:32 56° 102° (ESE) 10:16:32 435.675 MHz FM
FUNcube-1 02 Sep 10:34:23 10:37:26 18° 92° (E) 10:40:30 145.950 - 145.970 MHz USB
KITSAT 1 02 Sep 11:15:34 11:16:44 10° 263° (W) 11:17:54 435.175 FM
ISS 02 Sep 11:24:48 11:27:44 28° 336° (NNW) 11:30:40 145.800 FM
PANSAT 02 Sep 11:32:48 11:33:31 10° 171° (S) 11:34:15 not established
UKube-1 02 Sep 11:33:34 11:37:22 30° 291° (WNW) 11:41:08 145.840 MHz, 145.915 MHz
Oscar 11 02 Sep 11:36:32 11:40:38 40° 289° (WNW) 11:44:42 145.825 FM, Beacon 2401.500 USB
HO-68 02 Sep 11:50:52 11:56:50 30° 300° (WNW) 12:02:47 435.675 MHz FM
SO-50 02 Sep 11:54:44 11:59:23 49° 52° (NE) 12:04:05 436.795 FM
RS-15 02 Sep 11:55:49 12:03:39 21° 348° (NNW) 12:11:34 29.354 - 29.394 USB, Beacon 29.352 USB
FUNcube-1 02 Sep 12:09:40 12:14:02 46° 288° (WNW) 12:18:25 145.950 - 145.970 MHz USB
Oscar 19 02 Sep 12:20:26 12:22:15 12° 58° (ENE) 12:24:05 437.125 CW, 437.150 USB
JAS-1B 02 Sep 12:28:01 12:33:04 16° 53° (NE) 12:37:47 435.800 - 435.900 CW/SSB
Oscar 16 02 Sep 12:53:07 12:57:14 25° 65° (ENE) 13:01:22 437.025 USB, Beacon 2401.1428
MaSat-1 02 Sep 12:55:18 13:00:07 61° 111° (ESE) 13:05:13 437.345 MHz
ITAMSAT 1 02 Sep 12:59:07 13:01:03 12° 58° (ENE) 13:03:00 435.822 SSB
ISS 02 Sep 13:03:26 13:05:17 14° 356° (N) 13:07:09 145.800 FM
Uribyol 2 02 Sep 13:07:11 13:10:07 16° 60° (ENE) 13:13:04 436.500 FM
PANSAT 02 Sep 13:11:22 13:12:55 12° 184° (S) 13:14:27 not established
AO-27 02 Sep 13:26:36 13:30:31 22° 64° (ENE) 13:34:27 436.795 MHz FM
SO-50 02 Sep 13:36:03 13:39:38 21° 249° (WSW) 13:43:15 436.795 FM
UOSAT-12 02 Sep 13:38:47 13:43:19 43° 51° (NE) 13:47:47 437.025 FM, 437.400 FM
Oscar 19 02 Sep 13:55:37 14:00:47 88° 75° (ENE) 14:06:01 437.125 CW, 437.150 USB
AO-Echo 02 Sep 14:00:41 14:05:26 47° 72° (ENE) 14:10:05 ?
Gurwin Techsat 1B 02 Sep 14:10:30 14:14:47 26° 65° (ENE) 14:19:05 435.225 FM
RS-15 02 Sep 14:12:31 14:21:19 26° 24° (NNE) 14:30:16 29.354 - 29.394 USB, Beacon 29.352 USB
JAS-1B 02 Sep 14:12:41 14:22:16 67° 71° (ENE) 14:30:44 435.800 - 435.900 CW/SSB
Oscar 16 02 Sep 14:31:28 14:36:19 42° 262° (W) 14:41:14 437.025 USB, Beacon 2401.1428
MaSat-1 02 Sep 14:33:47 14:37:34 21° 310° (NW) 14:41:25 437.345 MHz
ITAMSAT 1 02 Sep 14:34:36 14:39:46 90° 72° (ENE) 14:44:58 435.822 SSB
ISS 02 Sep 14:40:32 14:43:00 19° 16° (NNE) 14:45:28 145.800 FM
AO-7 02 Sep 14:42:07 14:47:49 21° 51° (NE) 14:53:30 29.400 - 29.500 MHz
Uribyol 2 02 Sep 14:43:52 14:48:59 71° 258° (WSW) 14:54:10 436.500 FM
TMSAT-1 02 Sep 14:59:08 15:04:13 51° 71° (ENE) 15:09:20 436.925 FM
AO-27 02 Sep 15:04:44 15:09:42 47° 261° (W) 15:14:42 436.795 MHz FM
UOSAT-12 02 Sep 15:19:31 15:23:12 23° 249° (WSW) 15:26:49 437.025 FM, 437.400 FM
PCSat 02 Sep 15:37:00 15:40:35 18° 105° (ESE) 15:44:11 145.825 MHz
Oscar 19 02 Sep 15:39:48 15:40:48 11° 272° (W) 15:41:48 437.125 CW, 437.150 USB
AO-Echo 02 Sep 15:40:52 15:44:25 19° 267° (W) 15:47:54 ?
Gurwin Techsat 1B 02 Sep 15:49:32 15:54:31 42° 262° (W) 15:59:33 435.225 FM
JAS-1B 02 Sep 16:04:45 16:13:01 32° 266° (W) 16:20:39 435.800 - 435.900 CW/SSB
ISS 02 Sep 16:16:50 16:20:10 77° 35° (NE) 16:23:29 145.800 FM
ITAMSAT 1 02 Sep 16:19:36 16:19:57 10° 272° (W) 16:20:17 435.822 SSB
RS-15 02 Sep 16:25:08 16:36:11 69° 53° (NE) 16:47:39 29.354 - 29.394 USB, Beacon 29.352 USB
OPAL 02 Sep 16:28:20 16:30:18 12° 91° (E) 16:32:16 ?
AO-7 02 Sep 16:31:08 16:39:29 86° 71° (ENE) 16:47:51 29.400 - 29.500 MHz
Uosat F 02 Sep 16:31:58 16:36:57 74° 74° (ENE) 16:41:58 435.120 FM
TMSAT-1 02 Sep 16:40:36 16:44:25 20° 268° (W) 16:48:15 436.925 FM
JAS-2 02 Sep 16:44:08 16:46:39 13° 60° (ENE) 16:49:06 435.800 - 435.900 CW/SSB, 435.910 FM
Sapphire 02 Sep 16:48:54 16:54:16 72° 116° (ESE) 16:59:41 437.095 MHz 1200 baud AX-25 AFSK
Hamsat 02 Sep 17:17:10 17:20:12 19° 66° (ENE) 17:23:14 145.90 MHz
PCSat 02 Sep 17:18:07 17:23:27 62° 302° (WNW) 17:28:51 145.825 MHz
ISS 02 Sep 17:55:05 17:56:28 12° 231° (SW) 17:57:51 145.800 FM
OPAL 02 Sep 18:04:31 18:09:47 82° 287° (WNW) 18:14:58 ?
Uosat F 02 Sep 18:14:15 18:16:16 12° 270° (W) 18:18:17 435.120 FM
JAS-2 02 Sep 18:25:05 18:31:10 87° 256° (WSW) 18:36:38 435.800 - 435.900 CW/SSB, 435.910 FM
AO-7 02 Sep 18:27:38 18:33:11 19° 269° (W) 18:38:46 29.400 - 29.500 MHz
Sapphire 02 Sep 18:34:21 18:38:15 20° 316° (NW) 18:42:11 437.095 MHz 1200 baud AX-25 AFSK
RS-15 02 Sep 18:38:15 18:47:48 35° 254° (WSW) 18:57:43 29.354 - 29.394 USB, Beacon 29.352 USB
Hamsat 02 Sep 18:51:47 18:55:51 40° 262° (W) 18:59:58 145.90 MHz
PCSat 02 Sep 19:05:49 19:08:01 12° 323° (NW) 19:10:13 145.825 MHz
SO-67 02 Sep 19:10:35 19:13:52 41° 74° (ENE) 19:17:10 435.3500 MHz FM
OPAL 02 Sep 19:46:03 19:47:48 12° 305° (NW) 19:49:33 ?
STRAND 1 02 Sep 19:53:26 19:58:30 62° 102° (ESE) 20:03:33 ?
JAS-2 02 Sep 20:15:45 20:16:49 11° 270° (W) 20:17:53 435.800 - 435.900 CW/SSB, 435.910 FM
HO-68 02 Sep 20:31:03 20:37:39 43° 65° (ENE) 20:44:16 435.675 MHz FM
SO-67 02 Sep 20:46:23 20:47:08 11° 269° (W) 20:47:53 435.3500 MHz FM
UKube-1 02 Sep 20:53:30 20:56:50 22° 66° (ENE) 21:00:12 145.840 MHz, 145.915 MHz
Oscar 11 02 Sep 20:57:08 20:59:39 15° 64° (ENE) 21:02:11 145.825 FM, Beacon 2401.500 USB
MaSat-1 02 Sep 21:14:13 21:16:53 15° 46° (NE) 21:19:23 437.345 MHz
Saudisat 1A 02 Sep 21:18:47 21:21:42 18° 110° (ESE) 21:24:39 436.775 MHz
FUNcube-1 02 Sep 21:32:08 21:34:15 14° 63° (ENE) 21:36:24 145.950 - 145.970 MHz USB
STRAND 1 02 Sep 21:33:58 21:37:10 17° 298° (WNW) 21:40:23 ?
KITSAT 1 02 Sep 21:50:56 21:56:06 19° 101° (ESE) 22:01:15 435.175 FM
HO-68 02 Sep 22:18:52 22:25:22 38° 262° (W) 22:31:55 435.675 MHz FM
UKube-1 02 Sep 22:28:55 22:32:51 33° 262° (W) 22:36:48 145.840 MHz, 145.915 MHz
Oscar 11 02 Sep 22:31:11 22:35:24 51° 260° (W) 22:39:40 145.825 FM, Beacon 2401.500 USB
MaSat-1 02 Sep 22:50:03 22:54:29 63° 248° (WSW) 22:58:15 437.345 MHz
Saudisat 1A 02 Sep 22:56:38 23:00:54 49° 307° (NW) 23:05:13 436.775 MHz
FUNcube-1 02 Sep 23:06:03 23:10:09 55° 260° (W) 23:14:23 145.950 - 145.970 MHz USB
KITSAT 1 02 Sep 23:42:18 23:50:25 89° 300° (WNW) 23:58:34 435.175 FM
Sapphire 02 Sep 23:55:52 23:57:40 12° 36° (NE) 23:59:28 437.095 MHz 1200 baud AX-25 AFSK
PCSat 03 Sep 00:23:40 00:27:26 19° 43° (NE) 00:31:10 145.825 MHz
Sapphire 03 Sep 01:36:57 01:42:19 57° 57° (ENE) 01:47:38 437.095 MHz 1200 baud AX-25 AFSK
KITSAT 1 03 Sep 01:40:30 01:46:56 25° 322° (NW) 01:53:25 435.175 FM
JAS-1B 03 Sep 02:03:08 02:05:30 12° 84° (E) 02:07:47 435.800 - 435.900 CW/SSB
PCSat 03 Sep 02:06:02 02:11:29 79° 243° (WSW) 02:16:53 145.825 MHz
Oscar 19 03 Sep 02:07:41 02:12:17 31° 96° (E) 02:16:51 437.125 CW, 437.150 USB
AO-Echo 03 Sep 02:09:23 02:11:46 14° 91° (E) 02:14:08 ?
SO-50 03 Sep 02:11:59 02:14:22 14° 108° (ESE) 02:16:48 436.795 FM
Oscar 16 03 Sep 02:42:47 02:48:00 70° 102° (ESE) 02:53:09 437.025 USB, Beacon 2401.1428
ITAMSAT 1 03 Sep 02:47:51 02:52:29 32° 97° (E) 02:57:06 435.822 SSB
Uribyol 2 03 Sep 02:56:43 03:01:38 41° 99° (E) 03:06:32 436.500 FM
TMSAT-1 03 Sep 03:15:48 03:19:39 20° 92° (E) 03:23:29 436.925 FM
AO-27 03 Sep 03:17:30 03:22:39 63° 102° (ESE) 03:27:48 436.795 MHz FM
Sapphire 03 Sep 03:21:24 03:25:16 20° 254° (WSW) 03:29:07 437.095 MHz 1200 baud AX-25 AFSK
OPAL 03 Sep 03:42:09 03:46:07 23° 62° (ENE) 03:50:07 ?
KITSAT 1 03 Sep 03:43:48 03:45:56 11° 352° (N) 03:48:05 435.175 FM
AO-Echo 03 Sep 03:46:18 03:50:56 60° 287° (WNW) 03:55:35 ?
Oscar 19 03 Sep 03:47:00 03:51:35 32° 293° (WNW) 03:56:08 437.125 CW, 437.150 USB
SO-50 03 Sep 03:49:57 03:54:22 62° 306° (NW) 03:58:56 436.795 FM
JAS-1B 03 Sep 03:50:45 03:57:21 84° 286° (WNW) 04:03:08 435.800 - 435.900 CW/SSB
UOSAT-12 03 Sep 03:52:48 03:54:37 12° 107° (ESE) 03:56:27 437.025 FM, 437.400 FM
Gurwin Techsat 1B 03 Sep 04:05:19 04:10:40 79° 103° (ESE) 04:15:58 435.225 FM
Oscar 16 03 Sep 04:23:43 04:26:45 16° 299° (WNW) 04:29:47 437.025 USB, Beacon 2401.1428
ITAMSAT 1 03 Sep 04:27:23 04:31:55 31° 293° (WNW) 04:36:26 435.822 SSB
AO-7 03 Sep 04:33:32 04:40:27 29° 95° (E) 04:47:18 29.400 - 29.500 MHz
Uribyol 2 03 Sep 04:36:42 04:40:52 25° 295° (WNW) 04:45:02 436.500 FM
Uosat F 03 Sep 04:40:27 04:44:21 22° 94° (E) 04:48:14 435.120 FM
TMSAT-1 03 Sep 04:54:44 04:59:51 51° 289° (WNW) 05:04:56 436.925 FM
AO-27 03 Sep 04:58:20 05:01:39 18° 298° (WNW) 05:04:59 436.795 MHz FM
OPAL 03 Sep 05:19:50 05:24:41 45° 259° (W) 05:29:38 ?
UOSAT-12 03 Sep 05:29:29 05:34:05 76° 304° (NW) 05:38:49 437.025 FM, 437.400 FM
STRAND 1 03 Sep 05:34:18 05:36:03 12° 58° (ENE) 05:37:48 ?
SO-50 03 Sep 05:34:34 05:35:55 11° 326° (NNW) 05:37:17 436.795 FM
KITSAT 1 03 Sep 05:41:14 05:45:42 15° 24° (NNE) 05:50:09 435.175 FM
JAS-1B 03 Sep 05:43:47 05:46:42 13° 309° (NW) 05:49:29 435.800 - 435.900 CW/SSB
Saudisat 1A 03 Sep 05:44:36 05:47:39 18° 42° (NE) 05:50:42 436.775 MHz
Gurwin Techsat 1B 03 Sep 05:47:11 05:49:56 14° 300° (WNW) 05:52:41 435.225 FM
Uosat F 03 Sep 06:18:35 06:23:17 42° 290° (WNW) 06:27:58 435.120 FM
AO-7 03 Sep 06:25:33 06:33:42 63° 293° (WNW) 06:41:49 29.400 - 29.500 MHz
Hamsat 03 Sep 06:37:31 06:41:31 35° 97° (E) 06:45:27 145.90 MHz
